Zurück zum Katalog

STARLINK-37495

AktivKommunikationSSO
NORAD 68841·PAYLOAD·🇺🇸 United States

Gestartet Apr 26, 2026 von Vandenberg Space Force Base

Loading…

Nächste Überflüge (nächste 24 Stunden)

TLE

AktuellSource: CelesTrak SupGP

Epoche: Sep 14, 2026, 21:13 UTC

1 68841C 26094C   26257.88451389  .00036385  00000+0  11297-2 0  2579
2 68841  97.2830 271.0357 0001787  89.6801 264.8847 15.33414868    11

Verfolge STARLINK-37495 in Echtzeit mit AllMySat

Download on the App Store